Location: Vihti�l�
(61.3833°N, 23.0667°E)
Time: 03:52:10
(UTC+00:00)

Cosmos 1743 Rocket - Pass Details

Date: 29 November 2020
Orbit: 603 x 634 km, 82.6° (Epoch: 22 January)

Event Time Altitude Azimuth Distance (km) Brightness Sun altitude
Rises 04:58:09 0° 208° (SSW) 2,917 6.9 -14.0°
Reaches altitude 10° 05:00:25 10° 213° (SSW) 2,016 6.1 -13.7°
Maximum altitude 05:04:49 54° 291° (WNW) 780 3.7 -13.2°
Drops below altitude 10° 05:09:15 10° 9° (N) 2,036 6.1 -12.7°
Sets 05:11:33 0° 15° (NNE) 2,948 7.0 -12.5°
